Back to catalog

CZ-3B DEB

LostGTO
NORAD 40190·DEBRIS·🇨🇳 China

Launched Dec 19, 2011 from Xichang Satellite Launch Center

Loading…

TLE

StaleSource: Space-Track

Epoch: May 2, 2015, 14:25 UTC

1 40190U 11077P   15122.60092872  .00060508  00000-0  11350+0 0  9993
2 40190  26.6225 316.3553 7222417  88.4612 345.3701  2.29075198 16024

Track CZ-3B DEB in real time with AllMySat

Download on the App Store